Time,TemperatureF,DewpointF,PressureIn,WindDirection,WindDirectionDegrees,WindSpeedMPH,WindSpeedGustMPH,Humidity,HourlyPrecipIn,Conditions,Clouds,dailyrainin,SolarRadiationWatts/m^2,SoftwareType,DateUTC
2013-03-03 00:00:00,30.9,24.9,29.92,SSW,193,10.0,13.0,78,0.00,,---,0.00,0.00,VWS V14.01,2013-03-03 06:00:00,
2013-03-03 00:02:00,29.7,24.0,29.96,WNW,292,8.0,13.0,79,0.00,,---,0.00,0.00,VWS V14.01,2013-03-03 06:02:00,
2013-03-03 00:05:00,30.7,25.0,29.92,South,191,11.0,12.0,79,0.00,,---,0.00,0.00,VWS V14.01,2013-03-03 06:05:00,
2013-03-03 00:07:00,29.8,24.1,29.96,SSW,200,8.0,12.0,79,0.00,,---,0.00,0.00,VWS V14.01,2013-03-03 06:07:00,
2013-03-03 00:10:00,30.9,25.2,29.92,SW,222,12.0,12.0,79,0.00,,---,0.00,0.00,VWS V14.01,2013-03-03 06:10:00,
2013-03-03 00:12:00,30.0,24.3,29.96,SSW,198,12.0,13.0,79,0.00,,---,0.00,0.00,VWS V14.01,2013-03-03 06:12:00,
2013-03-03 00:15:00,31.2,25.5,29.92,SSW,196,12.0,13.0,79,0.00,,---,0.00,0.00,VWS V14.01,2013-03-03 06:15:00,
2013-03-03 00:17:00,30.0,24.3,29.95,North,0,13.0,14.0,79,0.00,,---,0.00,0.00,VWS V14.01,2013-03-03 06:17:00,
2013-03-03 00:20:00,31.3,25.6,29.92,South,189,16.0,16.0,79,0.00,,---,0.00,0.00,VWS V14.01,2013-03-03 06:20:00,
2013-03-03 00:22:00,29.8,24.1,29.95,South,186,13.0,13.0,79,0.00,,---,0.00,0.00,VWS V14.01,2013-03-03 06:22:00,
2013-03-03 00:25:00,31.8,25.7,29.92,SSW,212,12.0,17.0,78,0.00,,---,0.00,0.00,VWS V14.01,2013-03-03 06:25:00,
2013-03-03 00:27:00,30.0,24.3,29.95,NW,313,12.0,13.0,79,0.00,,---,0.00,0.00,VWS V14.01,2013-03-03 06:27:00,
2013-03-03 00:30:00,31.8,25.7,29.92,North,353,12.0,14.0,78,0.00,,---,0.00,0.00,VWS V14.01,2013-03-03 06:30:00,
2013-03-03 00:32:00,30.1,24.4,29.94,SSW,195,16.0,16.0,79,0.00,,---,0.00,0.00,VWS V14.01,2013-03-03 06:32:00,
2013-03-03 00:35:00,31.9,25.8,29.92,South,188,12.0,17.0,78,0.00,,---,0.00,0.00,VWS V14.01,2013-03-03 06:35:00,
2013-03-03 00:37:00,30.4,24.7,29.94,NNW,333,12.0,18.0,79,0.00,,---,0.00,0.00,VWS V14.01,2013-03-03 06:37:00,
2013-03-03 00:40:00,32.1,26.0,29.92,SW,223,14.0,18.0,78,0.00,,---,0.00,0.00,VWS V14.01,2013-03-03 06:40:00,
2013-03-03 00:42:00,30.7,25.0,29.94,SSW,200,15.0,19.0,79,0.00,,---,0.00,0.00,VWS V14.01,2013-03-03 06:42:00,
2013-03-03 00:45:00,32.2,26.1,29.91,SW,229,14.0,18.0,78,0.00,,---,0.00,0.00,VWS V14.01,2013-03-03 06:45:00,
2013-03-03 00:48:00,30.9,25.2,29.93,SSW,205,13.0,17.0,79,0.00,,---,0.00,0.00,VWS V14.01,2013-03-03 06:48:00,
2013-03-03 00:50:00,32.4,26.3,29.91,SW,219,12.0,19.0,78,0.00,,---,0.00,0.00,VWS V14.01,2013-03-03 06:50:00,
2013-03-03 00:53:00,30.9,24.9,29.93,South,175,13.0,16.0,78,0.00,,---,0.00,0.00,VWS V14.01,2013-03-03 06:53:00,
2013-03-03 00:55:00,32.2,26.1,29.91,SW,216,13.0,17.0,78,0.00,,---,0.00,0.00,VWS V14.01,2013-03-03 06:55:00,
2013-03-03 00:58:00,30.9,24.9,29.93,SW,216,11.0,13.0,78,0.00,,---,0.00,0.00,VWS V14.01,2013-03-03 06:58:00,
2013-03-03 01:00:00,32.1,26.0,29.90,NNW,342,13.0,18.0,78,0.00,,---,0.00,0.00,VWS V14.01,2013-03-03 07:00:00,
2013-03-03 01:03:00,30.7,25.0,29.92,South,188,8.0,12.0,79,0.00,,---,0.00,0.00,VWS V14.01,2013-03-03 07:03:00,
2013-03-03 01:05:00,32.1,26.0,29.90,SW,219,14.0,18.0,78,0.00,,---,0.00,0.00,VWS V14.01,2013-03-03 07:05:00,
2013-03-03 01:08:00,30.9,25.2,29.92,SSW,196,10.0,12.0,79,0.00,,---,0.00,0.00,VWS V14.01,2013-03-03 07:08:00,
2013-03-03 01:10:00,32.1,26.0,29.90,SW,227,6.0,17.0,78,0.00,,---,0.00,0.00,VWS V14.01,2013-03-03 07:10:00,
2013-03-03 01:13:00,31.0,25.3,29.92,SSW,196,9.0,13.0,79,0.00,,---,0.00,0.00,VWS V14.01,2013-03-03 07:13:00,
2013-03-03 01:15:00,31.9,25.8,29.90,SW,217,7.0,16.0,78,0.00,,---,0.00,0.00,VWS V14.01,2013-03-03 07:15:00,
2013-03-03 01:18:00,31.3,25.6,29.92,SSW,193,11.0,14.0,79,0.00,,---,0.00,0.00,VWS V14.01,2013-03-03 07:18:00,
2013-03-03 01:20:00,31.9,26.1,29.90,South,186,11.0,16.0,79,0.00,,---,0.00,0.00,VWS V14.01,2013-03-03 07:20:00,
2013-03-03 01:23:00,31.6,25.5,29.92,SSW,193,15.0,17.0,78,0.00,,---,0.00,0.00,VWS V14.01,2013-03-03 07:23:00,
2013-03-03 01:25:00,32.1,26.3,29.90,SSW,213,13.0,19.0,79,0.00,,---,0.00,0.00,VWS V14.01,2013-03-03 07:25:00,
2013-03-03 01:28:00,31.8,25.7,29.92,SW,215,11.0,14.0,78,0.00,,---,0.00,0.00,VWS V14.01,2013-03-03 07:28:00,
2013-03-03 01:30:00,32.2,26.4,29.89,SW,219,18.0,19.0,79,0.00,,---,0.00,0.00,VWS V14.01,2013-03-03 07:30:00,
2013-03-03 01:33:00,31.9,25.8,29.92,SSW,210,12.0,17.0,78,0.00,,---,0.00,0.00,VWS V14.01,2013-03-03 07:33:00,
2013-03-03 01:35:00,32.4,26.6,29.89,SW,222,11.0,19.0,79,0.00,,---,0.00,0.00,VWS V14.01,2013-03-03 07:35:00,
2013-03-03 01:38:00,32.1,26.0,29.92,SSW,192,12.0,18.0,78,0.00,,---,0.00,0.00,VWS V14.01,2013-03-03 07:38:00,
2013-03-03 01:40:00,32.4,26.3,29.89,SW,236,12.0,19.0,78,0.00,,---,0.00,0.00,VWS V14.01,2013-03-03 07:40:00,
2013-03-03 01:43:00,32.2,26.1,29.91,SW,217,17.0,18.0,78,0.00,,---,0.00,0.00,VWS V14.01,2013-03-03 07:43:00,
2013-03-03 01:45:00,32.4,26.6,29.87,SW,226,17.0,19.0,79,0.00,,---,0.00,0.00,VWS V14.01,2013-03-03 07:45:00,
2013-03-03 01:48:00,32.4,26.3,29.91,SW,220,12.0,19.0,78,0.00,,---,0.00,0.00,VWS V14.01,2013-03-03 07:48:00,
2013-03-03 01:50:00,32.4,26.6,29.87,SW,223,8.0,20.0,79,0.00,,---,0.00,0.00,VWS V14.01,2013-03-03 07:50:00,
2013-03-03 01:53:00,32.2,26.1,29.91,SW,217,13.0,17.0,78,0.00,,---,0.00,0.00,VWS V14.01,2013-03-03 07:53:00,
2013-03-03 01:55:00,32.4,26.6,29.87,SW,223,11.0,18.0,79,0.00,,---,0.00,0.00,VWS V14.01,2013-03-03 07:55:00,
2013-03-03 01:59:00,32.1,26.0,29.90,SSW,213,17.0,18.0,78,0.00,,---,0.00,0.00,VWS V14.01,2013-03-03 07:59:00,
2013-03-03 02:00:00,32.4,26.6,29.86,SW,217,6.0,17.0,79,0.00,,---,0.00,0.00,VWS V14.01,2013-03-03 08:00:00,
2013-03-03 02:04:00,32.1,26.0,29.90,SW,216,10.0,18.0,78,0.00,,---,0.00,0.00,VWS V14.01,2013-03-03 08:04:00,
2013-03-03 02:05:00,32.2,26.4,29.86,SW,232,12.0,14.0,79,0.00,,---,0.00,0.00,VWS V14.01,2013-03-03 08:05:00,
2013-03-03 02:09:00,32.1,26.0,29.90,SW,222,11.0,17.0,78,0.00,,---,0.00,0.00,VWS V14.01,2013-03-03 08:09:00,
2013-03-03 02:10:00,32.2,26.4,29.86,SW,220,10.0,14.0,79,0.00,,---,0.00,0.00,VWS V14.01,2013-03-03 08:10:00,
2013-03-03 02:14:00,31.9,25.8,29.90,SW,236,14.0,16.0,78,0.00,,---,0.00,0.00,VWS V14.01,2013-03-03 08:14:00,
2013-03-03 02:15:00,31.9,26.1,29.86,WSW,254,6.0,14.0,79,0.00,,---,0.00,0.00,VWS V14.01,2013-03-03 08:15:00,
2013-03-03 02:19:00,31.9,26.1,29.90,WSW,239,12.0,16.0,79,0.00,,---,0.00,0.00,VWS V14.01,2013-03-03 08:19:00,
2013-03-03 02:20:00,31.9,26.1,29.86,SW,233,7.0,14.0,79,0.00,,---,0.00,0.00,VWS V14.01,2013-03-03 08:20:00,
2013-03-03 02:24:00,32.1,26.3,29.90,SW,226,19.0,19.0,79,0.00,,---,0.00,0.00,VWS V14.01,2013-03-03 08:24:00,
2013-03-03 02:25:00,31.9,26.1,29.86,WSW,240,10.0,14.0,79,0.00,,---,0.00,0.00,VWS V14.01,2013-03-03 08:25:00,
2013-03-03 02:29:00,32.2,26.4,29.89,SW,219,18.0,19.0,79,0.00,,---,0.00,0.00,VWS V14.01,2013-03-03 08:29:00,
2013-03-03 02:30:00,31.8,26.0,29.85,SW,219,8.0,12.0,79,0.00,,---,0.00,0.00,VWS V14.01,2013-03-03 08:30:00,
2013-03-03 02:34:00,32.4,26.6,29.89,SW,222,11.0,19.0,79,0.00,,---,0.00,0.00,VWS V14.01,2013-03-03 08:34:00,
2013-03-03 02:35:00,31.8,26.0,29.85,SSW,213,12.0,13.0,79,0.00,,---,0.00,0.00,VWS V14.01,2013-03-03 08:35:00,
2013-03-03 02:39:00,32.4,26.3,29.89,SW,236,12.0,19.0,78,0.00,,---,0.00,0.00,VWS V14.01,2013-03-03 08:39:00,
2013-03-03 02:40:00,31.9,26.4,29.85,WSW,240,9.0,16.0,80,0.00,,---,0.00,0.00,VWS V14.01,2013-03-03 08:40:00,
2013-03-03 02:44:00,32.4,26.6,29.87,SW,226,17.0,19.0,79,0.00,,---,0.00,0.00,VWS V14.01,2013-03-03 08:44:00,
2013-03-03 02:45:00,32.1,26.6,29.84,SW,219,11.0,17.0,80,0.00,,---,0.00,0.00,VWS V14.01,2013-03-03 08:45:00,
2013-03-03 02:49:00,32.4,26.6,29.87,SW,223,8.0,20.0,79,0.00,,---,0.00,0.00,VWS V14.01,2013-03-03 08:49:00,
2013-03-03 02:50:00,31.9,26.4,29.84,SW,216,13.0,18.0,80,0.00,,---,0.00,0.00,VWS V14.01,2013-03-03 08:50:00,
2013-03-03 02:54:00,32.4,26.6,29.87,SW,223,11.0,18.0,79,0.00,,---,0.00,0.00,VWS V14.01,2013-03-03 08:54:00,
2013-03-03 02:55:00,32.1,26.6,29.84,West,265,10.0,17.0,80,0.00,,---,0.00,0.00,VWS V14.01,2013-03-03 08:55:00,
2013-03-03 02:59:00,32.4,26.6,29.86,SW,217,6.0,17.0,79,0.00,,---,0.00,0.00,VWS V14.01,2013-03-03 08:59:00,
2013-03-03 03:00:00,31.9,26.1,29.83,SSW,208,7.0,14.0,79,0.00,,---,0.00,0.00,VWS V14.01,2013-03-03 09:00:00,
2013-03-03 03:04:00,32.2,26.4,29.86,SW,232,12.0,14.0,79,0.00,,---,0.00,0.00,VWS V14.01,2013-03-03 09:04:00,
2013-03-03 03:05:00,31.6,25.9,29.83,North,352,10.0,11.0,79,0.00,,---,0.00,0.00,VWS V14.01,2013-03-03 09:05:00,
2013-03-03 03:09:00,32.2,26.4,29.86,SW,220,10.0,14.0,79,0.00,,---,0.00,0.00,VWS V14.01,2013-03-03 09:09:00,
2013-03-03 03:10:00,31.5,25.8,29.83,South,186,8.0,12.0,79,0.00,,---,0.00,0.00,VWS V14.01,2013-03-03 09:10:00,
2013-03-03 03:14:00,31.9,26.1,29.86,WSW,254,6.0,14.0,79,0.00,,---,0.00,0.00,VWS V14.01,2013-03-03 09:14:00,
2013-03-03 03:15:00,31.6,26.1,29.82,SW,219,12.0,15.0,80,0.00,,---,0.00,0.00,VWS V14.01,2013-03-03 09:15:00,
2013-03-03 03:19:00,31.9,26.1,29.86,SW,233,7.0,14.0,79,0.00,,---,0.00,0.00,VWS V14.01,2013-03-03 09:19:00,
2013-03-03 03:20:00,31.8,26.0,29.82,WSW,254,13.0,13.0,79,0.00,,---,0.00,0.00,VWS V14.01,2013-03-03 09:20:00,
2013-03-03 03:24:00,31.9,26.1,29.86,SW,233,8.0,14.0,79,0.00,,---,0.00,0.00,VWS V14.01,2013-03-03 09:24:00,
2013-03-03 03:25:00,31.8,26.0,29.82,SSW,208,10.0,13.0,79,0.00,,---,0.00,0.00,VWS V14.01,2013-03-03 09:25:00,
2013-03-03 03:29:00,31.8,26.0,29.85,WSW,240,10.0,10.0,79,0.00,,---,0.00,0.00,VWS V14.01,2013-03-03 09:29:00,
2013-03-03 03:30:00,31.8,26.0,29.82,NW,306,7.0,12.0,79,0.00,,---,0.00,0.00,VWS V14.01,2013-03-03 09:30:00,
2013-03-03 03:34:00,31.8,26.0,29.85,SW,227,10.0,12.0,79,0.00,,---,0.00,0.00,VWS V14.01,2013-03-03 09:34:00,
2013-03-03 03:35:00,31.6,25.9,29.82,SW,216,10.0,11.0,79,0.00,,---,0.00,0.00,VWS V14.01,2013-03-03 09:35:00,
2013-03-03 03:39:00,31.9,26.4,29.85,SW,219,7.0,9.0,80,0.00,,---,0.00,0.00,VWS V14.01,2013-03-03 09:39:00,
2013-03-03 03:40:00,31.3,25.6,29.82,West,265,11.0,11.0,79,0.00,,---,0.00,0.00,VWS V14.01,2013-03-03 09:40:00,
2013-03-03 03:44:00,32.1,26.6,29.84,SE,140,13.0,13.0,80,0.00,,---,0.00,0.00,VWS V14.01,2013-03-03 09:44:00,
2013-03-03 03:45:00,31.5,25.8,29.81,SW,215,8.0,11.0,79,0.00,,---,0.00,0.00,VWS V14.01,2013-03-03 09:45:00,
2013-03-03 03:49:00,31.9,26.4,29.84,South,178,13.0,13.0,80,0.00,,---,0.00,0.00,VWS V14.01,2013-03-03 09:49:00,
2013-03-03 03:50:00,31.5,25.8,29.81,SW,224,9.0,10.0,79,0.00,,---,0.00,0.00,VWS V14.01,2013-03-03 09:50:00,
2013-03-03 03:54:00,32.1,26.6,29.84,NNW,342,14.0,14.0,80,0.00,,---,0.00,0.00,VWS V14.01,2013-03-03 09:54:00,
2013-03-03 03:55:00,31.5,25.8,29.81,South,181,7.0,10.0,79,0.00,,---,0.00,0.00,VWS V14.01,2013-03-03 09:55:00,
2013-03-03 04:00:00,31.9,26.1,29.83,SW,215,6.0,11.0,79,0.00,,---,0.00,0.00,VWS V14.01,2013-03-03 10:00:00,
2013-03-03 04:05:00,31.6,25.9,29.83,SSW,212,8.0,10.0,79,0.00,,---,0.00,0.00,VWS V14.01,2013-03-03 10:05:00,
2013-03-03 04:10:00,31.5,25.8,29.83,South,181,8.0,12.0,79,0.00,,---,0.00,0.00,VWS V14.01,2013-03-03 10:10:00,
2013-03-03 04:15:00,31.6,26.1,29.82,SSW,210,12.0,12.0,80,0.00,,---,0.00,0.00,VWS V14.01,2013-03-03 10:15:00,
2013-03-03 04:20:00,31.8,26.0,29.82,SW,216,8.0,13.0,79,0.00,,---,0.00,0.00,VWS V14.01,2013-03-03 10:20:00,
2013-03-03 04:25:00,31.8,26.0,29.82,NNW,333,12.0,12.0,79,0.00,,---,0.00,0.00,VWS V14.01,2013-03-03 10:25:00,
2013-03-03 04:30:00,31.8,26.0,29.82,SSW,209,7.0,8.0,79,0.00,,---,0.00,0.00,VWS V14.01,2013-03-03 10:30:00,
2013-03-03 04:35:00,31.5,25.8,29.82,SW,217,8.0,10.0,79,0.00,,---,0.00,0.00,VWS V14.01,2013-03-03 10:35:00,
2013-03-03 04:40:00,31.9,25.5,29.81,WSW,240,12.0,12.0,77,0.00,,---,0.00,0.00,VWS V14.01,2013-03-03 10:40:00,
2013-03-03 04:41:00,31.3,25.6,29.82,SSW,210,5.0,11.0,79,0.00,,---,0.00,0.00,VWS V14.01,2013-03-03 10:41:00,
2013-03-03 04:45:00,31.9,25.5,29.80,South,186,10.0,12.0,77,0.00,,---,0.00,0.00,VWS V14.01,2013-03-03 10:45:00,
2013-03-03 04:46:00,31.5,25.8,29.81,SSW,213,8.0,10.0,79,0.00,,---,0.00,0.00,VWS V14.01,2013-03-03 10:46:00,
2013-03-03 04:50:00,31.9,25.2,29.80,SSW,209,12.0,14.0,76,0.00,,---,0.00,0.00,VWS V14.01,2013-03-03 10:50:00,
2013-03-03 04:51:00,31.5,25.8,29.81,South,186,6.0,10.0,79,0.00,,---,0.00,0.00,VWS V14.01,2013-03-03 10:51:00,
2013-03-03 04:55:00,31.9,25.2,29.80,South,178,7.0,12.0,76,0.00,,---,0.00,0.00,VWS V14.01,2013-03-03 10:55:00,
2013-03-03 04:56:00,31.5,25.8,29.81,South,179,8.0,10.0,79,0.00,,---,0.00,0.00,VWS V14.01,2013-03-03 10:56:00,
2013-03-03 05:00:00,31.5,24.8,29.80,South,172,5.0,8.0,76,0.00,,---,0.00,0.00,VWS V14.01,2013-03-03 11:00:00,
2013-03-03 05:01:00,31.3,25.6,29.81,South,181,6.0,8.0,79,0.00,,---,0.00,0.00,VWS V14.01,2013-03-03 11:01:00,
2013-03-03 05:05:00,30.9,24.2,29.80,SSW,196,6.0,7.0,76,0.00,,---,0.00,0.00,VWS V14.01,2013-03-03 11:05:00,
2013-03-03 05:06:00,31.3,25.6,29.81,South,191,7.0,11.0,79,0.00,,---,0.00,0.00,VWS V14.01,2013-03-03 11:06:00,
2013-03-03 05:10:00,30.4,24.1,29.80,South,171,3.0,7.0,77,0.00,,---,0.00,0.00,VWS V14.01,2013-03-03 11:10:00,
2013-03-03 05:11:00,31.5,25.8,29.81,South,186,6.0,11.0,79,0.00,,---,0.00,0.00,VWS V14.01,2013-03-03 11:11:00,
2013-03-03 05:15:00,30.3,24.3,29.80,South,171,3.0,6.0,78,0.00,,---,0.00,0.00,VWS V14.01,2013-03-03 11:15:00,
2013-03-03 05:16:00,31.6,25.5,29.81,WSW,240,12.0,13.0,78,0.00,,---,0.00,0.00,VWS V14.01,2013-03-03 11:16:00,
2013-03-03 05:20:00,30.1,24.1,29.80,SSE,154,4.0,6.0,78,0.00,,---,0.00,0.00,VWS V14.01,2013-03-03 11:20:00,
2013-03-03 05:21:00,31.9,25.8,29.81,SW,219,9.0,14.0,78,0.00,,---,0.00,0.00,VWS V14.01,2013-03-03 11:21:00,
2013-03-03 05:25:00,30.1,24.4,29.80,SSE,164,5.0,7.0,79,0.00,,---,0.00,0.00,VWS V14.01,2013-03-03 11:25:00,
2013-03-03 05:26:00,32.1,25.7,29.81,South,184,12.0,12.0,77,0.00,,---,0.00,0.00,VWS V14.01,2013-03-03 11:26:00,
2013-03-03 05:30:00,30.1,24.4,29.80,WSW,256,4.0,8.0,79,0.00,,---,0.00,0.00,VWS V14.01,2013-03-03 11:30:00,
2013-03-03 05:32:00,32.1,25.7,29.81,SSW,195,5.0,10.0,77,0.00,,---,0.00,0.00,VWS V14.01,2013-03-03 11:32:00,
2013-03-03 05:35:00,30.1,24.4,29.80,South,186,6.0,11.0,79,0.00,,---,0.00,0.00,VWS V14.01,2013-03-03 11:35:00,
2013-03-03 05:37:00,32.1,25.7,29.81,SSW,212,7.0,11.0,77,0.00,,---,0.00,0.00,VWS V14.01,2013-03-03 11:37:00,
2013-03-03 05:40:00,30.1,24.4,29.80,South,176,7.0,10.0,79,0.00,,---,0.00,0.00,VWS V14.01,2013-03-03 11:40:00,
2013-03-03 05:42:00,31.9,25.5,29.81,WSW,256,11.0,12.0,77,0.00,,---,0.00,0.00,VWS V14.01,2013-03-03 11:42:00,
2013-03-03 05:45:00,30.0,24.3,29.80,SW,223,7.0,10.0,79,0.00,,---,0.00,0.00,VWS V14.01,2013-03-03 11:45:00,
2013-03-03 05:47:00,31.9,25.5,29.80,SSW,199,7.0,14.0,77,0.00,,---,0.00,0.00,VWS V14.01,2013-03-03 11:47:00,
2013-03-03 05:50:00,30.1,24.7,29.80,NNW,347,8.0,11.0,80,0.00,,---,0.00,0.00,VWS V14.01,2013-03-03 11:50:00,
2013-03-03 05:52:00,31.9,25.2,29.80,South,191,7.0,12.0,76,0.00,,---,0.00,0.00,VWS V14.01,2013-03-03 11:52:00,
2013-03-03 05:55:00,30.0,24.6,29.80,West,272,8.0,11.0,80,0.00,,---,0.00,0.00,VWS V14.01,2013-03-03 11:55:00,
2013-03-03 05:57:00,31.8,25.1,29.80,South,176,3.0,7.0,76,0.00,,---,0.00,0.00,VWS V14.01,2013-03-03 11:57:00,
2013-03-03 06:00:00,30.0,24.6,29.79,North,0,6.0,10.0,80,0.00,,---,0.00,0.00,VWS V14.01,2013-03-03 12:00:00,
2013-03-03 06:02:00,31.2,24.5,29.80,SSE,168,5.0,7.0,76,0.00,,---,0.00,0.00,VWS V14.01,2013-03-03 12:02:00,
2013-03-03 06:05:00,30.0,24.6,29.79,NW,313,6.0,8.0,80,0.00,,---,0.00,0.00,VWS V14.01,2013-03-03 12:05:00,
2013-03-03 06:07:00,30.7,24.4,29.80,South,169,6.0,7.0,77,0.00,,---,0.00,0.00,VWS V14.01,2013-03-03 12:07:00,
2013-03-03 06:10:00,29.8,24.4,29.79,SW,216,7.0,11.0,80,0.00,,---,0.00,7.00,VWS V14.01,2013-03-03 12:10:00,
2013-03-03 06:12:00,30.3,24.3,29.80,South,175,4.0,6.0,78,0.00,,---,0.00,0.00,VWS V14.01,2013-03-03 12:12:00,
2013-03-03 06:15:00,29.8,24.4,29.79,SSW,205,8.0,11.0,80,0.00,,---,0.00,11.00,VWS V14.01,2013-03-03 12:15:00,
2013-03-03 06:17:00,30.1,24.1,29.80,SW,215,6.0,6.0,78,0.00,,---,0.00,0.00,VWS V14.01,2013-03-03 12:17:00,
2013-03-03 06:20:00,30.0,24.6,29.79,South,179,6.0,10.0,80,0.00,,---,0.00,11.00,VWS V14.01,2013-03-03 12:20:00,
2013-03-03 06:22:00,30.1,24.1,29.80,SSE,164,6.0,7.0,78,0.00,,---,0.00,0.00,VWS V14.01,2013-03-03 12:22:00,
2013-03-03 06:25:00,30.0,24.6,29.79,South,186,6.0,10.0,80,0.00,,---,0.00,18.00,VWS V14.01,2013-03-03 12:25:00,
2013-03-03 06:27:00,30.1,24.4,29.80,SW,226,5.0,8.0,79,0.00,,---,0.00,0.00,VWS V14.01,2013-03-03 12:27:00,
2013-03-03 06:30:00,30.1,25.0,29.78,SW,227,8.0,11.0,81,0.00,,---,0.00,23.00,VWS V14.01,2013-03-03 12:30:00,
2013-03-03 06:33:00,30.1,24.4,29.80,SSW,210,7.0,10.0,79,0.00,,---,0.00,0.00,VWS V14.01,2013-03-03 12:33:00,
2013-03-03 06:35:00,30.3,25.2,29.78,WSW,256,8.0,11.0,81,0.00,,---,0.00,40.00,VWS V14.01,2013-03-03 12:35:00,
2013-03-03 06:38:00,30.1,24.4,29.80,NNW,336,8.0,10.0,79,0.00,,---,0.00,0.00,VWS V14.01,2013-03-03 12:38:00,
2013-03-03 06:40:00,30.6,25.5,29.78,SSW,192,4.0,11.0,81,0.00,,---,0.00,49.00,VWS V14.01,2013-03-03 12:40:00,
2013-03-03 06:43:00,30.0,24.3,29.80,West,263,7.0,10.0,79,0.00,,---,0.00,0.00,VWS V14.01,2013-03-03 12:43:00,
2013-03-03 06:45:00,30.9,25.8,29.78,South,184,7.0,11.0,81,0.00,,---,0.00,106.00,VWS V14.01,2013-03-03 12:45:00,
2013-03-03 06:48:00,30.0,24.6,29.80,SSW,198,8.0,11.0,80,0.00,,---,0.00,0.00,VWS V14.01,2013-03-03 12:48:00,
2013-03-03 06:50:00,31.0,25.6,29.78,South,189,8.0,9.0,80,0.00,,---,0.00,100.00,VWS V14.01,2013-03-03 12:50:00,
2013-03-03 06:53:00,30.0,24.6,29.80,WSW,237,10.0,11.0,80,0.00,,---,0.00,0.00,VWS V14.01,2013-03-03 12:53:00,
2013-03-03 06:55:00,31.2,25.8,29.78,South,191,7.0,11.0,80,0.00,,---,0.00,109.00,VWS V14.01,2013-03-03 12:55:00,
2013-03-03 06:58:00,30.0,24.6,29.79,SSW,200,7.0,10.0,80,0.00,,---,0.00,0.00,VWS V14.01,2013-03-03 12:58:00,
2013-03-03 07:00:00,31.3,25.9,29.78,NW,309,7.0,12.0,80,0.00,,---,0.00,91.00,VWS V14.01,2013-03-03 13:00:00,
2013-03-03 07:03:00,30.0,24.6,29.79,SSW,208,6.0,8.0,80,0.00,,---,0.00,0.00,VWS V14.01,2013-03-03 13:03:00,
2013-03-03 07:05:00,31.6,26.1,29.78,South,188,8.0,10.0,80,0.00,,---,0.00,160.00,VWS V14.01,2013-03-03 13:05:00,
2013-03-03 07:08:00,29.8,24.4,29.79,West,270,9.0,10.0,80,0.00,,---,0.00,7.00,VWS V14.01,2013-03-03 13:08:00,
2013-03-03 07:10:00,32.1,26.6,29.78,South,188,5.0,11.0,80,0.00,,---,0.00,209.00,VWS V14.01,2013-03-03 13:10:00,
2013-03-03 07:13:00,29.8,24.4,29.79,SW,215,9.0,11.0,80,0.00,,---,0.00,11.00,VWS V14.01,2013-03-03 13:13:00,
2013-03-03 07:15:00,32.7,26.9,29.78,SSW,213,5.0,11.0,79,0.00,,---,0.00,195.00,VWS V14.01,2013-03-03 13:15:00,
2013-03-03 07:19:00,30.0,24.6,29.79,SSW,208,6.0,10.0,80,0.00,,---,0.00,11.00,VWS V14.01,2013-03-03 13:19:00,
2013-03-03 07:20:00,33.1,27.3,29.78,SW,220,10.0,13.0,79,0.00,,---,0.00,223.00,VWS V14.01,2013-03-03 13:20:00,
2013-03-03 07:24:00,30.0,24.6,29.79,WSW,246,7.0,10.0,80,0.00,,---,0.00,18.00,VWS V14.01,2013-03-03 13:24:00,
2013-03-03 07:25:00,33.4,27.3,29.78,SW,222,12.0,15.0,78,0.00,,---,0.00,229.00,VWS V14.01,2013-03-03 13:25:00,
2013-03-03 07:29:00,30.1,25.0,29.78,SW,227,8.0,11.0,81,0.00,,---,0.00,23.00,VWS V14.01,2013-03-03 13:29:00,
2013-03-03 07:30:00,33.7,27.6,29.78,South,174,10.0,13.0,78,0.00,,---,0.00,243.00,VWS V14.01,2013-03-03 13:30:00,
2013-03-03 07:34:00,30.3,25.2,29.78,SSW,196,6.0,8.0,81,0.00,,---,0.00,40.00,VWS V14.01,2013-03-03 13:34:00,
2013-03-03 07:35:00,34.0,27.6,29.78,South,188,10.0,14.0,77,0.00,,---,0.00,209.00,VWS V14.01,2013-03-03 13:35:00,
2013-03-03 07:39:00,30.6,25.5,29.78,SW,222,7.0,7.0,81,0.00,,---,0.00,49.00,VWS V14.01,2013-03-03 13:39:00,
2013-03-03 07:40:00,34.1,27.7,29.78,SSW,199,2.0,11.0,77,0.00,,---,0.00,197.00,VWS V14.01,2013-03-03 13:40:00,
2013-03-03 07:44:00,30.9,25.8,29.78,South,179,6.0,7.0,81,0.00,,---,0.00,106.00,VWS V14.01,2013-03-03 13:44:00,
2013-03-03 07:45:00,34.3,28.2,29.76,South,169,7.0,11.0,78,0.00,,---,0.00,185.00,VWS V14.01,2013-03-03 13:45:00,
2013-03-03 07:49:00,31.0,25.6,29.78,SSW,206,11.0,11.0,80,0.00,,---,0.00,111.00,VWS V14.01,2013-03-03 13:49:00,
2013-03-03 07:50:00,34.3,28.2,29.76,South,181,7.0,12.0,78,0.00,,---,0.00,176.00,VWS V14.01,2013-03-03 13:50:00,
2013-03-03 07:54:00,31.2,25.8,29.78,SW,233,10.0,10.0,80,0.00,,---,0.00,93.00,VWS V14.01,2013-03-03 13:54:00,
2013-03-03 07:55:00,34.4,28.3,29.76,SSW,192,9.0,13.0,78,0.00,,---,0.00,238.00,VWS V14.01,2013-03-03 13:55:00,
2013-03-03 08:00:00,31.3,25.9,29.78,South,188,7.0,10.0,80,0.00,,---,0.00,109.00,VWS V14.01,2013-03-03 14:00:00,
2013-03-03 08:05:00,31.6,26.1,29.78,SSW,192,6.0,9.0,80,0.00,,---,0.00,171.00,VWS V14.01,2013-03-03 14:05:00,
2013-03-03 08:10:00,32.1,26.6,29.78,South,188,6.0,7.0,80,0.00,,---,0.00,216.00,VWS V14.01,2013-03-03 14:10:00,
2013-03-03 08:15:00,32.7,26.9,29.78,NNW,342,12.0,12.0,79,0.00,,---,0.00,202.00,VWS V14.01,2013-03-03 14:15:00,
2013-03-03 08:20:00,33.2,27.4,29.78,SW,223,11.0,14.0,79,0.00,,---,0.00,223.00,VWS V14.01,2013-03-03 14:20:00,
2013-03-03 08:25:00,33.4,27.3,29.78,SSW,210,9.0,13.0,78,0.00,,---,0.00,236.00,VWS V14.01,2013-03-03 14:25:00,
2013-03-03 08:30:00,33.8,27.4,29.78,SSW,203,6.0,14.0,77,0.00,,---,0.00,216.00,VWS V14.01,2013-03-03 14:30:00,
2013-03-03 08:35:00,34.0,27.6,29.78,SSW,192,7.0,11.0,77,0.00,,---,0.00,213.00,VWS V14.01,2013-03-03 14:35:00,
2013-03-03 08:40:00,34.3,28.2,29.78,South,176,8.0,11.0,78,0.00,,---,0.00,206.00,VWS V14.01,2013-03-03 14:40:00,
2013-03-03 08:45:00,34.4,28.0,29.76,West,278,8.0,12.0,77,0.00,,---,0.00,179.00,VWS V14.01,2013-03-03 14:45:00,
2013-03-03 08:50:00,34.3,28.2,29.76,South,185,10.0,13.0,78,0.00,,---,0.00,179.00,VWS V14.01,2013-03-03 14:50:00,
2013-03-03 08:55:00,36.9,30.0,29.75,South,186,11.0,11.0,76,0.00,,---,0.00,484.00,VWS V14.01,2013-03-03 14:55:00,
2013-03-03 08:56:00,34.6,28.5,29.76,South,191,7.0,9.0,78,0.00,,---,0.00,269.00,VWS V14.01,2013-03-03 14:56:00,
2013-03-03 09:00:00,37.0,30.1,29.74,South,188,6.0,12.0,76,0.00,,---,0.00,568.00,VWS V14.01,2013-03-03 15:00:00,
2013-03-03 09:01:00,35.0,28.9,29.76,South,185,6.0,11.0,78,0.00,,---,0.00,299.00,VWS V14.01,2013-03-03 15:01:00,
2013-03-03 09:05:00,37.3,30.4,29.74,South,185,10.0,13.0,76,0.00,,---,0.00,570.00,VWS V14.01,2013-03-03 15:05:00,
2013-03-03 09:06:00,35.5,29.3,29.76,South,184,12.0,12.0,78,0.00,,---,0.00,262.00,VWS V14.01,2013-03-03 15:06:00,
2013-03-03 09:10:00,37.0,29.8,29.74,South,189,7.0,12.0,75,0.00,,---,0.00,343.00,VWS V14.01,2013-03-03 15:10:00,
2013-03-03 09:11:00,35.5,29.0,29.76,WNW,282,10.0,11.0,77,0.00,,---,0.00,176.00,VWS V14.01,2013-03-03 15:11:00,
2013-03-03 09:15:00,37.0,29.8,29.75,South,188,8.0,12.0,75,0.00,,---,0.00,450.00,VWS V14.01,2013-03-03 15:15:00,
2013-03-03 09:16:00,35.6,29.1,29.76,South,186,12.0,12.0,77,0.00,,---,0.00,341.00,VWS V14.01,2013-03-03 15:16:00,
2013-03-03 09:20:00,37.2,30.0,29.75,South,191,10.0,14.0,75,0.00,,---,0.00,361.00,VWS V14.01,2013-03-03 15:20:00,
2013-03-03 09:21:00,35.8,29.3,29.76,NNW,330,13.0,14.0,77,0.00,,---,0.00,326.00,VWS V14.01,2013-03-03 15:21:00,
2013-03-03 09:25:00,37.2,30.3,29.75,SSW,192,10.0,13.0,76,0.00,,---,0.00,301.00,VWS V14.01,2013-03-03 15:25:00,
2013-03-03 09:26:00,35.8,29.3,29.76,South,176,7.0,12.0,77,0.00,,---,0.00,359.00,VWS V14.01,2013-03-03 15:26:00,
2013-03-03 09:30:00,37.2,30.0,29.74,South,188,7.0,13.0,75,0.00,,---,0.00,348.00,VWS V14.01,2013-03-03 15:30:00,
2013-03-03 09:31:00,35.6,28.8,29.75,South,185,8.0,14.0,76,0.00,,---,0.00,310.00,VWS V14.01,2013-03-03 15:31:00,
2013-03-03 09:35:00,37.5,30.6,29.74,South,172,7.0,13.0,76,0.00,,---,0.00,327.00,VWS V14.01,2013-03-03 15:35:00,
2013-03-03 09:36:00,35.8,29.3,29.75,South,185,11.0,13.0,77,0.00,,---,0.00,436.00,VWS V14.01,2013-03-03 15:36:00,
2013-03-03 09:40:00,37.9,31.0,29.74,SW,219,11.0,11.0,76,0.00,,---,0.00,521.00,VWS V14.01,2013-03-03 15:40:00,
2013-03-03 09:41:00,36.2,29.7,29.75,SW,230,8.0,12.0,77,0.00,,---,0.00,385.00,VWS V14.01,2013-03-03 15:41:00,
2013-03-03 09:45:00,38.2,31.0,29.73,South,178,10.0,13.0,75,0.00,,---,0.00,421.00,VWS V14.01,2013-03-03 15:45:00,
2013-03-03 09:46:00,36.5,29.7,29.75,South,171,7.0,11.0,76,0.00,,---,0.00,419.00,VWS V14.01,2013-03-03 15:46:00,
2013-03-03 09:50:00,38.5,31.3,29.73,SSW,192,8.0,13.0,75,0.00,,---,0.00,632.00,VWS V14.01,2013-03-03 15:50:00,
2013-03-03 09:51:00,36.8,30.0,29.75,South,179,7.0,11.0,76,0.00,,---,0.00,456.00,VWS V14.01,2013-03-03 15:51:00,
2013-03-03 09:55:00,38.6,31.0,29.73,SW,232,11.0,14.0,74,0.00,,---,0.00,354.00,VWS V14.01,2013-03-03 15:55:00,
2013-03-03 09:57:00,36.9,30.0,29.75,South,182,7.0,11.0,76,0.00,,---,0.00,487.00,VWS V14.01,2013-03-03 15:57:00,
2013-03-03 10:00:00,38.8,31.2,29.71,South,181,12.0,14.0,74,0.00,,---,0.00,475.00,VWS V14.01,2013-03-03 16:00:00,
2013-03-03 10:02:00,37.3,30.4,29.74,South,181,10.0,11.0,76,0.00,,---,0.00,570.00,VWS V14.01,2013-03-03 16:02:00,
2013-03-03 10:05:00,39.3,32.0,29.71,SSW,209,10.0,17.0,75,0.00,,---,0.00,602.00,VWS V14.01,2013-03-03 16:05:00,
2013-03-03 10:07:00,37.2,30.0,29.74,South,176,11.0,12.0,75,0.00,,---,0.00,398.00,VWS V14.01,2013-03-03 16:07:00,
2013-03-03 10:10:00,39.8,32.2,29.71,SSW,193,7.0,13.0,74,0.00,,---,0.00,602.00,VWS V14.01,2013-03-03 16:10:00,
2013-03-03 10:12:00,37.0,29.8,29.74,South,188,11.0,11.0,75,0.00,,---,0.00,384.00,VWS V14.01,2013-03-03 16:12:00,
2013-03-03 10:15:00,40.1,32.2,29.71,South,189,8.0,12.0,73,0.00,,---,0.00,586.00,VWS V14.01,2013-03-03 16:15:00,
2013-03-03 10:17:00,37.2,30.0,29.75,South,175,9.0,14.0,75,0.00,,---,0.00,384.00,VWS V14.01,2013-03-03 16:17:00,
2013-03-03 10:20:00,40.2,31.9,29.71,South,188,9.0,13.0,72,0.00,,---,0.00,586.00,VWS V14.01,2013-03-03 16:20:00,
2013-03-03 10:22:00,37.2,30.0,29.75,South,186,10.0,12.0,75,0.00,,---,0.00,301.00,VWS V14.01,2013-03-03 16:22:00,
2013-03-03 10:25:00,40.3,32.0,29.71,South,191,11.0,14.0,72,0.00,,---,0.00,560.00,VWS V14.01,2013-03-03 16:25:00,
2013-03-03 10:27:00,37.2,30.0,29.75,SSW,206,10.0,12.0,75,0.00,,---,0.00,317.00,VWS V14.01,2013-03-03 16:27:00,
2013-03-03 10:30:00,40.8,32.8,29.70,South,188,7.0,14.0,73,0.00,,---,0.00,435.00,VWS V14.01,2013-03-03 16:30:00,
2013-03-03 10:32:00,37.3,30.1,29.74,SW,220,6.0,13.0,75,0.00,,---,0.00,385.00,VWS V14.01,2013-03-03 16:32:00,
2013-03-03 10:35:00,41.3,33.0,29.70,South,184,16.0,16.0,72,0.00,,---,0.00,362.00,VWS V14.01,2013-03-03 16:35:00,
2013-03-03 10:37:00,37.6,30.4,29.74,South,182,8.0,10.0,75,0.00,,---,0.00,375.00,VWS V14.01,2013-03-03 16:37:00,
2013-03-03 10:40:00,41.5,33.2,29.70,South,184,6.0,16.0,72,0.00,,---,0.00,577.00,VWS V14.01,2013-03-03 16:40:00,
2013-03-03 10:42:00,38.0,30.8,29.74,South,186,10.0,13.0,75,0.00,,---,0.00,421.00,VWS V14.01,2013-03-03 16:42:00,
2013-03-03 10:45:00,41.6,33.3,29.70,South,191,8.0,14.0,72,0.00,,---,0.00,720.00,VWS V14.01,2013-03-03 16:45:00,
2013-03-03 10:47:00,38.5,31.3,29.73,South,188,13.0,13.0,75,0.00,,---,0.00,630.00,VWS V14.01,2013-03-03 16:47:00,
2013-03-03 10:50:00,41.8,33.5,29.70,South,185,11.0,18.0,72,0.00,,---,0.00,735.00,VWS V14.01,2013-03-03 16:50:00,
2013-03-03 10:53:00,38.6,31.0,29.73,SSW,198,11.0,14.0,74,0.00,,---,0.00,512.00,VWS V14.01,2013-03-03 16:53:00,
2013-03-03 10:55:00,42.1,33.4,29.70,South,185,15.0,16.0,71,0.00,,---,0.00,702.00,VWS V14.01,2013-03-03 16:55:00,
2013-03-03 10:58:00,38.8,31.2,29.73,South,181,11.0,14.0,74,0.00,,---,0.00,545.00,VWS V14.01,2013-03-03 16:58:00,
2013-03-03 11:00:00,42.1,33.4,29.69,WSW,257,10.0,16.0,71,0.00,,---,0.00,188.00,VWS V14.01,2013-03-03 17:00:00,
2013-03-03 11:03:00,39.2,32.0,29.71,South,188,9.0,17.0,75,0.00,,---,0.00,517.00,VWS V14.01,2013-03-03 17:03:00,
2013-03-03 11:05:00,42.2,33.5,29.69,South,184,12.0,16.0,71,0.00,,---,0.00,148.00,VWS V14.01,2013-03-03 17:05:00,
2013-03-03 11:08:00,39.8,32.2,29.71,SSE,151,5.0,13.0,74,0.00,,---,0.00,607.00,VWS V14.01,2013-03-03 17:08:00,
2013-03-03 11:10:00,42.5,33.8,29.69,SSW,195,12.0,15.0,71,0.00,,---,0.00,139.00,VWS V14.01,2013-03-03 17:10:00,
2013-03-03 11:13:00,40.1,32.2,29.71,SSE,150,6.0,12.0,73,0.00,,---,0.00,598.00,VWS V14.01,2013-03-03 17:13:00,
2013-03-03 11:15:00,42.9,34.2,29.68,SSW,205,11.0,16.0,71,0.00,,---,0.00,185.00,VWS V14.01,2013-03-03 17:15:00,
2013-03-03 11:18:00,40.2,31.9,29.71,South,175,7.0,13.0,72,0.00,,---,0.00,549.00,VWS V14.01,2013-03-03 17:18:00,
2013-03-03 11:20:00,43.2,34.5,29.68,SSW,210,10.0,13.0,71,0.00,,---,0.00,633.00,VWS V14.01,2013-03-03 17:20:00,
2013-03-03 11:23:00,40.3,32.0,29.71,South,189,13.0,14.0,72,0.00,,---,0.00,560.00,VWS V14.01,2013-03-03 17:23:00,
2013-03-03 11:25:00,43.5,34.4,29.68,SSE,160,11.0,16.0,70,0.00,,---,0.00,669.00,VWS V14.01,2013-03-03 17:25:00,
2013-03-03 11:28:00,40.6,32.6,29.70,SSW,192,8.0,14.0,73,0.00,,---,0.00,435.00,VWS V14.01,2013-03-03 17:28:00,
2013-03-03 11:30:00,43.3,34.2,29.67,SSE,167,9.0,14.0,70,0.00,,---,0.00,621.00,VWS V14.01,2013-03-03 17:30:00,
2013-03-03 11:33:00,41.3,33.0,29.70,SW,222,13.0,14.0,72,0.00,,---,0.00,362.00,VWS V14.01,2013-03-03 17:33:00,
2013-03-03 11:35:00,43.3,33.8,29.67,SW,233,12.0,14.0,69,0.00,,---,0.00,199.00,VWS V14.01,2013-03-03 17:35:00,
2013-03-03 11:38:00,41.5,33.2,29.70,South,179,8.0,16.0,72,0.00,,---,0.00,577.00,VWS V14.01,2013-03-03 17:38:00,
2013-03-03 11:40:00,43.3,34.2,29.67,South,175,12.0,17.0,70,0.00,,---,0.00,378.00,VWS V14.01,2013-03-03 17:40:00,
2013-03-03 11:44:00,41.6,33.3,29.70,SSW,196,13.0,14.0,72,0.00,,---,0.00,720.00,VWS V14.01,2013-03-03 17:44:00,
2013-03-03 11:45:00,43.2,34.1,29.67,West,263,10.0,17.0,70,0.00,,---,0.00,413.00,VWS V14.01,2013-03-03 17:45:00,
2013-03-03 11:49:00,41.8,33.5,29.70,SSW,198,10.0,18.0,72,0.00,,---,0.00,735.00,VWS V14.01,2013-03-03 17:49:00,
2013-03-03 11:50:00,42.9,33.4,29.67,South,186,13.0,17.0,69,0.00,,---,0.00,392.00,VWS V14.01,2013-03-03 17:50:00,
2013-03-03 11:54:00,42.1,33.4,29.70,South,185,15.0,16.0,71,0.00,,---,0.00,702.00,VWS V14.01,2013-03-03 17:54:00,
2013-03-03 11:55:00,42.8,33.7,29.67,South,186,13.0,17.0,70,0.00,,---,0.00,403.00,VWS V14.01,2013-03-03 17:55:00,
2013-03-03 11:59:00,42.1,33.4,29.69,SW,224,12.0,16.0,71,0.00,,---,0.00,188.00,VWS V14.01,2013-03-03 17:59:00,
2013-03-03 12:00:00,42.6,33.5,29.66,WSW,247,11.0,16.0,70,0.00,,---,0.00,413.00,VWS V14.01,2013-03-03 18:00:00,
2013-03-03 12:04:00,42.2,33.5,29.69,South,184,12.0,16.0,71,0.00,,---,0.00,148.00,VWS V14.01,2013-03-03 18:04:00,
2013-03-03 12:05:00,42.5,33.4,29.66,SSW,195,8.0,16.0,70,0.00,,---,0.00,424.00,VWS V14.01,2013-03-03 18:05:00,
2013-03-03 12:09:00,42.5,33.8,29.69,SSW,195,12.0,15.0,71,0.00,,---,0.00,139.00,VWS V14.01,2013-03-03 18:09:00,
2013-03-03 12:10:00,42.6,33.9,29.66,South,175,7.0,13.0,71,0.00,,---,0.00,336.00,VWS V14.01,2013-03-03 18:10:00,
2013-03-03 12:14:00,42.9,34.2,29.68,SSW,205,11.0,16.0,71,0.00,,---,0.00,185.00,VWS V14.01,2013-03-03 18:14:00,
2013-03-03 12:15:00,42.6,33.9,29.65,SSE,167,8.0,13.0,71,0.00,,---,0.00,327.00,VWS V14.01,2013-03-03 18:15:00,
2013-03-03 12:19:00,43.2,34.5,29.68,South,185,10.0,10.0,71,0.00,,---,0.00,633.00,VWS V14.01,2013-03-03 18:19:00,
2013-03-03 12:20:00,42.5,33.8,29.65,South,181,13.0,15.0,71,0.00,,---,0.00,333.00,VWS V14.01,2013-03-03 18:20:00,
2013-03-03 12:24:00,43.5,34.4,29.68,SSE,168,10.0,11.0,70,0.00,,---,0.00,669.00,VWS V14.01,2013-03-03 18:24:00,
2013-03-03 12:25:00,42.3,33.6,29.65,South,175,9.0,17.0,71,0.00,,---,0.00,320.00,VWS V14.01,2013-03-03 18:25:00,
2013-03-03 12:29:00,43.3,34.2,29.67,SSE,168,8.0,9.0,70,0.00,,---,0.00,621.00,VWS V14.01,2013-03-03 18:29:00,
2013-03-03 12:30:00,42.2,33.5,29.63,South,184,7.0,15.0,71,0.00,,---,0.00,278.00,VWS V14.01,2013-03-03 18:30:00,
2013-03-03 12:34:00,43.3,33.8,29.67,South,175,15.0,15.0,69,0.00,,---,0.00,199.00,VWS V14.01,2013-03-03 18:34:00,
2013-03-03 12:35:00,42.2,33.5,29.63,SSE,168,5.0,11.0,71,0.00,,---,0.00,259.00,VWS V14.01,2013-03-03 18:35:00,
2013-03-03 12:39:00,43.3,33.8,29.67,SSW,195,10.0,12.0,69,0.00,,---,0.00,378.00,VWS V14.01,2013-03-03 18:39:00,
2013-03-03 12:40:00,42.3,33.6,29.63,SSE,161,5.0,12.0,71,0.00,,---,0.00,266.00,VWS V14.01,2013-03-03 18:40:00,
2013-03-03 12:44:00,43.2,33.7,29.67,West,260,12.0,12.0,69,0.00,,---,0.00,413.00,VWS V14.01,2013-03-03 18:44:00,
2013-03-03 12:45:00,42.2,33.5,29.62,SE,141,6.0,11.0,71,0.00,,---,0.00,269.00,VWS V14.01,2013-03-03 18:45:00,
2013-03-03 12:49:00,42.9,33.4,29.67,South,186,14.0,17.0,69,0.00,,---,0.00,391.00,VWS V14.01,2013-03-03 18:49:00,
2013-03-03 12:50:00,41.9,33.2,29.62,WSW,253,6.0,10.0,71,0.00,,---,0.00,264.00,VWS V14.01,2013-03-03 18:50:00,
2013-03-03 12:54:00,42.8,33.7,29.67,SW,232,13.0,14.0,70,0.00,,---,0.00,412.00,VWS V14.01,2013-03-03 18:54:00,
2013-03-03 12:55:00,41.9,33.2,29.62,SSE,154,6.0,11.0,71,0.00,,---,0.00,246.00,VWS V14.01,2013-03-03 18:55:00,
2013-03-03 13:00:00,42.5,33.4,29.66,SSW,196,10.0,16.0,70,0.00,,---,0.00,410.00,VWS V14.01,2013-03-03 19:00:00,
2013-03-03 13:05:00,42.6,33.9,29.66,South,186,11.0,13.0,71,0.00,,---,0.00,385.00,VWS V14.01,2013-03-03 19:05:00,
2013-03-03 13:10:00,42.6,33.9,29.66,SW,227,11.0,13.0,71,0.00,,---,0.00,336.00,VWS V14.01,2013-03-03 19:10:00,
2013-03-03 13:15:00,42.6,33.9,29.65,South,178,7.0,15.0,71,0.00,,---,0.00,324.00,VWS V14.01,2013-03-03 19:15:00,
2013-03-03 13:20:00,42.5,33.8,29.65,SW,227,13.0,17.0,71,0.00,,---,0.00,334.00,VWS V14.01,2013-03-03 19:20:00,
2013-03-03 13:25:00,42.3,33.6,29.65,West,261,11.0,15.0,71,0.00,,---,0.00,303.00,VWS V14.01,2013-03-03 19:25:00,
2013-03-03 13:30:00,42.2,33.5,29.63,SSE,167,10.0,11.0,71,0.00,,---,0.00,273.00,VWS V14.01,2013-03-03 19:30:00,
2013-03-03 13:35:00,42.6,33.9,29.60,NW,320,10.0,14.0,71,0.00,,---,0.00,276.00,VWS V14.01,2013-03-03 19:35:00,
2013-03-03 13:36:00,42.3,33.6,29.63,SSE,148,6.0,6.0,71,0.00,,---,0.00,259.00,VWS V14.01,2013-03-03 19:36:00,
2013-03-03 13:40:00,42.8,33.7,29.60,SSE,157,6.0,13.0,70,0.00,,---,0.00,267.00,VWS V14.01,2013-03-03 19:40:00,
2013-03-03 13:41:00,42.3,33.6,29.63,NNW,337,7.0,11.0,71,0.00,,---,0.00,276.00,VWS V14.01,2013-03-03 19:41:00,
2013-03-03 13:45:00,42.8,33.7,29.59,South,175,12.0,14.0,70,0.00,,---,0.00,255.00,VWS V14.01,2013-03-03 19:45:00,
2013-03-03 13:46:00,42.1,33.0,29.62,WSW,243,8.0,10.0,70,0.00,,---,0.00,267.00,VWS V14.01,2013-03-03 19:46:00,
2013-03-03 13:50:00,42.9,33.8,29.59,SE,145,7.0,12.0,70,0.00,,---,0.00,248.00,VWS V14.01,2013-03-03 19:50:00,
2013-03-03 13:51:00,41.9,33.2,29.62,South,181,8.0,10.0,71,0.00,,---,0.00,257.00,VWS V14.01,2013-03-03 19:51:00,
2013-03-03 13:55:00,42.9,33.4,29.59,North,0,8.0,12.0,69,0.00,,---,0.00,229.00,VWS V14.01,2013-03-03 19:55:00,
2013-03-03 13:56:00,41.9,33.2,29.62,SSE,151,3.0,11.0,71,0.00,,---,0.00,253.00,VWS V14.01,2013-03-03 19:56:00,
2013-03-03 14:00:00,42.9,33.4,29.59,SSE,161,7.0,14.0,69,0.00,,---,0.00,227.00,VWS V14.01,2013-03-03 20:00:00,
2013-03-03 14:01:00,41.9,33.2,29.61,SSE,161,12.0,16.0,71,0.00,,---,0.00,252.00,VWS V14.01,2013-03-03 20:01:00,
2013-03-03 14:05:00,43.2,34.1,29.59,SSE,158,9.0,11.0,70,0.00,,---,0.00,223.00,VWS V14.01,2013-03-03 20:05:00,
2013-03-03 14:06:00,41.9,33.2,29.61,South,176,5.0,9.0,71,0.00,,---,0.00,264.00,VWS V14.01,2013-03-03 20:06:00,
2013-03-03 14:10:00,43.3,33.8,29.59,North,356,8.0,14.0,69,0.00,,---,0.00,216.00,VWS V14.01,2013-03-03 20:10:00,
2013-03-03 14:11:00,42.1,33.4,29.61,SSE,167,5.0,9.0,71,0.00,,---,0.00,259.00,VWS V14.01,2013-03-03 20:11:00,
2013-03-03 14:15:00,43.6,34.1,29.57,North,357,7.0,13.0,69,0.00,,---,0.00,225.00,VWS V14.01,2013-03-03 20:15:00,
2013-03-03 14:16:00,42.2,33.1,29.60,South,175,8.0,11.0,70,0.00,,---,0.00,283.00,VWS V14.01,2013-03-03 20:16:00,
2013-03-03 14:20:00,43.8,34.3,29.57,SSE,151,7.0,13.0,69,0.00,,---,0.00,252.00,VWS V14.01,2013-03-03 20:20:00,
2013-03-03 14:22:00,42.2,33.1,29.60,NW,309,8.0,13.0,70,0.00,,---,0.00,280.00,VWS V14.01,2013-03-03 20:22:00,
2013-03-03 14:25:00,44.1,34.2,29.57,North,0,9.0,16.0,68,0.00,,---,0.00,264.00,VWS V14.01,2013-03-03 20:25:00,
2013-03-03 14:27:00,42.2,33.1,29.60,NW,304,8.0,13.0,70,0.00,,---,0.00,282.00,VWS V14.01,2013-03-03 20:27:00,
2013-03-03 14:30:00,44.2,34.3,29.56,North,349,9.0,13.0,68,0.00,,---,0.00,260.00,VWS V14.01,2013-03-03 20:30:00,
2013-03-03 14:32:00,42.5,33.8,29.60,SSE,161,11.0,11.0,71,0.00,,---,0.00,269.00,VWS V14.01,2013-03-03 20:32:00,
2013-03-03 14:35:00,44.5,35.0,29.56,North,0,13.0,13.0,69,0.00,,---,0.00,234.00,VWS V14.01,2013-03-03 20:35:00,
2013-03-03 14:37:00,42.8,33.7,29.60,NW,322,5.0,13.0,70,0.00,,---,0.00,274.00,VWS V14.01,2013-03-03 20:37:00,
2013-03-03 14:40:00,44.5,34.6,29.56,SSE,150,12.0,13.0,68,0.00,,---,0.00,238.00,VWS V14.01,2013-03-03 20:40:00,
2013-03-03 14:42:00,42.8,33.7,29.60,South,172,8.0,12.0,70,0.00,,---,0.00,257.00,VWS V14.01,2013-03-03 20:42:00,
2013-03-03 14:45:00,44.6,34.7,29.55,SE,133,9.0,16.0,68,0.00,,---,0.00,274.00,VWS V14.01,2013-03-03 20:45:00,
2013-03-03 14:47:00,42.9,33.8,29.59,SSE,160,7.0,12.0,70,0.00,,---,0.00,253.00,VWS V14.01,2013-03-03 20:47:00,
2013-03-03 14:50:00,44.8,34.9,29.55,NW,305,11.0,12.0,68,0.00,,---,0.00,334.00,VWS V14.01,2013-03-03 20:50:00,
2013-03-03 14:52:00,42.9,33.8,29.59,SW,224,9.0,12.0,70,0.00,,---,0.00,230.00,VWS V14.01,2013-03-03 20:52:00,
2013-03-03 14:55:00,45.2,35.3,29.55,SSE,160,8.0,12.0,68,0.00,,---,0.00,438.00,VWS V14.01,2013-03-03 20:55:00,
2013-03-03 14:57:00,42.9,33.4,29.59,SSE,167,6.0,14.0,69,0.00,,---,0.00,225.00,VWS V14.01,2013-03-03 20:57:00,
2013-03-03 15:00:00,45.5,35.2,29.55,SE,138,11.0,13.0,67,0.00,,---,0.00,417.00,VWS V14.01,2013-03-03 21:00:00,
2013-03-03 15:03:00,43.1,34.0,29.59,NW,306,6.0,11.0,70,0.00,,---,0.00,225.00,VWS V14.01,2013-03-03 21:03:00,
2013-03-03 15:05:00,45.5,35.2,29.55,SSW,209,12.0,17.0,67,0.00,,---,0.00,299.00,VWS V14.01,2013-03-03 21:05:00,
2013-03-03 15:08:00,43.3,33.8,29.59,SE,141,7.0,14.0,69,0.00,,---,0.00,215.00,VWS V14.01,2013-03-03 21:08:00,
2013-03-03 15:10:00,45.5,35.2,29.55,West,265,13.0,16.0,67,0.00,,---,0.00,250.00,VWS V14.01,2013-03-03 21:10:00,
2013-03-03 15:13:00,43.5,34.0,29.59,North,0,7.0,13.0,69,0.00,,---,0.00,222.00,VWS V14.01,2013-03-03 21:13:00,
2013-03-03 15:15:00,45.5,35.2,29.55,West,275,9.0,13.0,67,0.00,,---,0.00,209.00,VWS V14.01,2013-03-03 21:15:00,
2013-03-03 15:18:00,43.8,34.3,29.57,SE,141,9.0,13.0,69,0.00,,---,0.00,241.00,VWS V14.01,2013-03-03 21:18:00,
2013-03-03 15:20:00,45.7,35.4,29.55,SE,137,8.0,13.0,67,0.00,,---,0.00,165.00,VWS V14.01,2013-03-03 21:20:00,
2013-03-03 15:23:00,44.1,34.2,29.57,South,179,12.0,12.0,68,0.00,,---,0.00,264.00,VWS V14.01,2013-03-03 21:23:00,
2013-03-03 15:25:00,45.7,35.4,29.55,SSW,210,10.0,13.0,67,0.00,,---,0.00,160.00,VWS V14.01,2013-03-03 21:25:00,
2013-03-03 15:28:00,44.2,34.3,29.56,NNW,330,10.0,13.0,68,0.00,,---,0.00,264.00,VWS V14.01,2013-03-03 21:28:00,
2013-03-03 15:30:00,45.7,35.4,29.53,West,267,12.0,13.0,67,0.00,,---,0.00,187.00,VWS V14.01,2013-03-03 21:30:00,
2013-03-03 15:33:00,44.3,34.4,29.56,North,0,7.0,12.0,68,0.00,,---,0.00,238.00,VWS V14.01,2013-03-03 21:33:00,
2013-03-03 15:35:00,45.8,35.5,29.53,SSW,202,11.0,13.0,67,0.00,,---,0.00,202.00,VWS V14.01,2013-03-03 21:35:00,
2013-03-03 15:38:00,44.5,34.6,29.56,SSE,165,12.0,13.0,68,0.00,,---,0.00,238.00,VWS V14.01,2013-03-03 21:38:00,
2013-03-03 15:40:00,46.0,35.7,29.53,SW,232,5.0,14.0,67,0.00,,---,0.00,185.00,VWS V14.01,2013-03-03 21:40:00,
2013-03-03 15:44:00,44.6,34.7,29.55,West,267,11.0,16.0,68,0.00,,---,0.00,274.00,VWS V14.01,2013-03-03 21:44:00,
2013-03-03 15:45:00,46.2,36.2,29.54,WNW,287,9.0,12.0,68,0.00,,---,0.00,171.00,VWS V14.01,2013-03-03 21:45:00,
2013-03-03 15:49:00,44.8,34.9,29.55,SE,134,11.0,12.0,68,0.00,,---,0.00,334.00,VWS V14.01,2013-03-03 21:49:00,
2013-03-03 15:50:00,46.4,36.4,29.54,SSW,200,3.0,10.0,68,0.00,,---,0.00,153.00,VWS V14.01,2013-03-03 21:50:00,
2013-03-03 15:54:00,45.1,35.2,29.55,SSE,158,11.0,12.0,68,0.00,,---,0.00,438.00,VWS V14.01,2013-03-03 21:54:00,
2013-03-03 15:55:00,46.5,36.5,29.54,ESE,121,7.0,9.0,68,0.00,,---,0.00,153.00,VWS V14.01,2013-03-03 21:55:00,
2013-03-03 15:59:00,45.4,35.1,29.55,SSE,164,8.0,13.0,67,0.00,,---,0.00,417.00,VWS V14.01,2013-03-03 21:59:00,
2013-03-03 16:00:00,46.5,36.5,29.54,SE,133,3.0,8.0,68,0.00,,---,0.00,116.00,VWS V14.01,2013-03-03 22:00:00,
2013-03-03 16:04:00,45.5,35.2,29.55,North,349,13.0,17.0,67,0.00,,---,0.00,299.00,VWS V14.01,2013-03-03 22:04:00,
2013-03-03 16:05:00,46.5,36.5,29.54,SE,138,6.0,10.0,68,0.00,,---,0.00,90.00,VWS V14.01,2013-03-03 22:05:00,
2013-03-03 16:09:00,45.5,35.2,29.55,West,265,13.0,16.0,67,0.00,,---,0.00,250.00,VWS V14.01,2013-03-03 22:09:00,
2013-03-03 16:10:00,46.2,35.9,29.54,West,267,6.0,10.0,67,0.00,,---,0.00,86.00,VWS V14.01,2013-03-03 22:10:00,
2013-03-03 16:14:00,45.5,35.2,29.55,West,275,9.0,13.0,67,0.00,,---,0.00,209.00,VWS V14.01,2013-03-03 22:14:00,
2013-03-03 16:15:00,46.0,36.0,29.53,NNW,346,6.0,8.0,68,0.00,,---,0.00,93.00,VWS V14.01,2013-03-03 22:15:00,
2013-03-03 16:19:00,45.7,35.4,29.55,SE,137,8.0,13.0,67,0.00,,---,0.00,165.00,VWS V14.01,2013-03-03 22:19:00,
2013-03-03 16:20:00,45.5,35.9,29.53,SSE,160,6.0,12.0,69,0.00,,---,0.00,88.00,VWS V14.01,2013-03-03 22:20:00,
2013-03-03 16:24:00,45.7,35.4,29.55,SSW,210,10.0,13.0,67,0.00,,---,0.00,160.00,VWS V14.01,2013-03-03 22:24:00,
2013-03-03 16:25:00,45.1,35.9,29.53,SSE,160,7.0,8.0,70,0.00,,---,0.00,70.00,VWS V14.01,2013-03-03 22:25:00,
2013-03-03 16:29:00,45.7,35.4,29.53,West,267,12.0,13.0,67,0.00,,---,0.00,187.00,VWS V14.01,2013-03-03 22:29:00,
2013-03-03 16:30:00,44.6,35.8,29.53,SW,233,6.0,10.0,71,0.00,,---,0.00,63.00,VWS V14.01,2013-03-03 22:30:00,
2013-03-03 16:34:00,45.8,35.5,29.53,SSE,162,7.0,11.0,67,0.00,,---,0.00,202.00,VWS V14.01,2013-03-03 22:34:00,
2013-03-03 16:35:00,44.3,35.5,29.53,SSW,196,4.0,8.0,71,0.00,,---,0.00,58.00,VWS V14.01,2013-03-03 22:35:00,
2013-03-03 16:39:00,46.0,35.7,29.53,WNW,287,7.0,7.0,67,0.00,,---,0.00,185.00,VWS V14.01,2013-03-03 22:39:00,
2013-03-03 16:40:00,43.9,35.5,29.53,ESE,106,9.0,10.0,72,0.00,,---,0.00,55.00,VWS V14.01,2013-03-03 22:40:00,
2013-03-03 16:44:00,46.2,35.9,29.54,South,185,8.0,10.0,67,0.00,,---,0.00,171.00,VWS V14.01,2013-03-03 22:44:00,
2013-03-03 16:45:00,43.5,35.4,29.53,ESE,112,8.0,10.0,73,0.00,,---,0.00,48.00,VWS V14.01,2013-03-03 22:45:00,
2013-03-03 16:49:00,46.4,36.4,29.54,South,175,4.0,5.0,68,0.00,,---,0.00,151.00,VWS V14.01,2013-03-03 22:49:00,
2013-03-03 16:50:00,43.1,35.4,29.53,SW,234,7.0,8.0,74,0.00,,---,0.00,40.00,VWS V14.01,2013-03-03 22:50:00,
2013-03-03 16:54:00,46.5,36.5,29.54,SSE,148,7.0,7.0,68,0.00,,---,0.00,146.00,VWS V14.01,2013-03-03 22:54:00,
2013-03-03 16:55:00,42.9,35.2,29.53,North,0,6.0,7.0,74,0.00,,---,0.00,39.00,VWS V14.01,2013-03-03 22:55:00,
2013-03-03 16:59:00,46.5,36.5,29.54,WSW,257,6.0,7.0,68,0.00,,---,0.00,109.00,VWS V14.01,2013-03-03 22:59:00,
2013-03-03 17:00:00,42.8,35.4,29.53,East,100,5.0,8.0,75,0.00,,---,0.00,35.00,VWS V14.01,2013-03-03 23:00:00,
2013-03-03 17:05:00,46.5,36.5,29.54,SE,134,3.0,8.0,68,0.00,,---,0.00,90.00,VWS V14.01,2013-03-03 23:05:00,
2013-03-03 17:10:00,46.2,36.2,29.54,South,172,3.0,7.0,68,0.00,,---,0.00,88.00,VWS V14.01,2013-03-03 23:10:00,
2013-03-03 17:15:00,45.8,35.8,29.53,NNW,337,11.0,11.0,68,0.00,,---,0.00,93.00,VWS V14.01,2013-03-03 23:15:00,
2013-03-03 17:20:00,45.4,35.8,29.53,NW,308,7.0,7.0,69,0.00,,---,0.00,84.00,VWS V14.01,2013-03-03 23:20:00,
2013-03-03 17:25:00,45.1,35.9,29.53,SE,130,7.0,8.0,70,0.00,,---,0.00,69.00,VWS V14.01,2013-03-03 23:25:00,
2013-03-03 17:30:00,44.6,35.8,29.53,South,172,6.0,8.0,71,0.00,,---,0.00,63.00,VWS V14.01,2013-03-03 23:30:00,
2013-03-03 17:35:00,44.2,35.8,29.53,WNW,294,5.0,7.0,72,0.00,,---,0.00,56.00,VWS V14.01,2013-03-03 23:35:00,
2013-03-03 17:40:00,43.8,35.4,29.53,NNW,336,7.0,10.0,72,0.00,,---,0.00,58.00,VWS V14.01,2013-03-03 23:40:00,
2013-03-03 17:45:00,43.3,35.2,29.53,SW,219,7.0,8.0,73,0.00,,---,0.00,44.00,VWS V14.01,2013-03-03 23:45:00,
2013-03-03 17:50:00,43.1,35.4,29.53,SW,229,4.0,7.0,74,0.00,,---,0.00,39.00,VWS V14.01,2013-03-03 23:50:00,
2013-03-03 17:55:00,42.9,35.5,29.53,ESE,106,5.0,8.0,75,0.00,,---,0.00,40.00,VWS V14.01,2013-03-03 23:55:00,
2013-03-03 18:00:00,39.9,33.9,29.54,ENE,69,6.0,7.0,79,0.00,,---,0.00,0.00,VWS V14.01,2013-03-04 00:00:00,
2013-03-03 18:01:00,42.6,35.2,29.53,SW,217,5.0,7.0,75,0.00,,---,0.00,32.00,VWS V14.01,2013-03-04 00:01:00,
2013-03-03 18:05:00,39.6,33.6,29.54,SSW,193,6.0,8.0,79,0.00,,---,0.00,0.00,VWS V14.01,2013-03-04 00:05:00,
2013-03-03 18:06:00,42.3,35.3,29.53,ESE,107,6.0,6.0,76,0.00,,---,0.00,26.00,VWS V14.01,2013-03-04 00:06:00,
2013-03-03 18:10:00,39.2,33.2,29.54,East,93,3.0,7.0,79,0.00,,---,0.00,0.00,VWS V14.01,2013-03-04 00:10:00,
2013-03-03 18:11:00,42.1,35.1,29.53,South,172,6.0,7.0,76,0.00,,---,0.00,16.00,VWS V14.01,2013-03-04 00:11:00,
2013-03-03 18:15:00,39.3,34.0,29.53,SSE,158,5.0,8.0,81,0.00,,---,0.00,0.00,VWS V14.01,2013-03-04 00:15:00,
2013-03-03 18:16:00,41.6,34.9,29.53,SSE,150,7.0,9.0,77,0.00,,---,0.00,11.00,VWS V14.01,2013-03-04 00:16:00,
2013-03-03 18:20:00,39.6,34.0,29.53,South,175,5.0,8.0,80,0.00,,---,0.00,0.00,VWS V14.01,2013-03-04 00:20:00,
2013-03-03 18:21:00,41.3,34.7,29.53,SE,128,7.0,10.0,77,0.00,,---,0.00,9.00,VWS V14.01,2013-03-04 00:21:00,
2013-03-03 18:25:00,39.9,33.9,29.53,ESE,107,7.0,8.0,79,0.00,,---,0.00,0.00,VWS V14.01,2013-03-04 00:25:00,
2013-03-03 18:26:00,41.1,34.5,29.53,SE,131,4.0,5.0,77,0.00,,---,0.00,0.00,VWS V14.01,2013-03-04 00:26:00,
2013-03-03 18:30:00,39.9,33.9,29.53,ESE,119,8.0,8.0,79,0.00,,---,0.00,0.00,VWS V14.01,2013-03-04 00:30:00,
2013-03-03 18:31:00,40.8,34.5,29.53,East,85,5.0,6.0,78,0.00,,---,0.00,0.00,VWS V14.01,2013-03-04 00:31:00,
2013-03-03 18:35:00,39.8,33.8,29.53,SW,229,8.0,8.0,79,0.00,,---,0.00,0.00,VWS V14.01,2013-03-04 00:35:00,
2013-03-03 18:36:00,40.3,34.3,29.53,East,82,6.0,6.0,79,0.00,,---,0.00,0.00,VWS V14.01,2013-03-04 00:36:00,
2013-03-03 18:40:00,39.8,33.8,29.53,South,181,7.0,8.0,79,0.00,,---,0.00,0.00,VWS V14.01,2013-03-04 00:40:00,
2013-03-03 18:41:00,40.2,34.2,29.53,East,95,4.0,6.0,79,0.00,,---,0.00,0.00,VWS V14.01,2013-03-04 00:41:00,
2013-03-03 18:45:00,39.8,33.8,29.52,South,174,9.0,10.0,79,0.00,,---,0.00,0.00,VWS V14.01,2013-03-04 00:45:00,
2013-03-03 18:46:00,40.2,34.2,29.53,SE,136,7.0,7.0,79,0.00,,---,0.00,0.00,VWS V14.01,2013-03-04 00:46:00,
2013-03-03 18:50:00,39.5,33.5,29.52,ESE,114,6.0,11.0,79,0.00,,---,0.00,0.00,VWS V14.01,2013-03-04 00:50:00,
2013-03-03 18:51:00,40.2,34.2,29.53,East,99,6.0,7.0,79,0.00,,---,0.00,0.00,VWS V14.01,2013-03-04 00:51:00,
2013-03-03 18:55:00,39.3,33.3,29.52,North,0,8.0,12.0,79,0.00,,---,0.00,0.00,VWS V14.01,2013-03-04 00:55:00,
2013-03-03 18:57:00,40.2,34.2,29.53,ENE,78,6.0,6.0,79,0.00,,---,0.00,0.00,VWS V14.01,2013-03-04 00:57:00,
2013-03-03 19:00:00,39.3,33.3,29.52,SSE,164,11.0,11.0,79,0.00,,---,0.00,0.00,VWS V14.01,2013-03-04 01:00:00,
2013-03-03 19:02:00,39.6,33.6,29.54,SSE,158,7.0,8.0,79,0.00,,---,0.00,0.00,VWS V14.01,2013-03-04 01:02:00,
2013-03-03 19:05:00,39.2,33.2,29.52,North,356,8.0,11.0,79,0.00,,---,0.00,0.00,VWS V14.01,2013-03-04 01:05:00,
2013-03-03 19:07:00,39.3,33.3,29.54,East,88,7.0,7.0,79,0.00,,---,0.00,0.00,VWS V14.01,2013-03-04 01:07:00,
2013-03-03 19:10:00,38.9,33.0,29.52,WSW,253,8.0,11.0,79,0.00,,---,0.00,0.00,VWS V14.01,2013-03-04 01:10:00,
2013-03-03 19:12:00,39.2,33.6,29.54,West,278,8.0,8.0,80,0.00,,---,0.00,0.00,VWS V14.01,2013-03-04 01:12:00,
2013-03-03 19:15:00,38.9,33.0,29.51,ESE,106,9.0,11.0,79,0.00,,---,0.00,0.00,VWS V14.01,2013-03-04 01:15:00,
2013-03-03 19:17:00,39.6,34.0,29.53,West,267,7.0,8.0,80,0.00,,---,0.00,0.00,VWS V14.01,2013-03-04 01:17:00,
2013-03-03 19:20:00,39.2,32.9,29.51,SSE,150,7.0,12.0,78,0.00,,---,0.00,0.00,VWS V14.01,2013-03-04 01:20:00,
2013-03-03 19:22:00,39.8,33.8,29.53,East,100,7.0,8.0,79,0.00,,---,0.00,0.00,VWS V14.01,2013-03-04 01:22:00,
2013-03-03 19:25:00,39.2,32.9,29.51,WNW,284,10.0,12.0,78,0.00,,---,0.00,0.00,VWS V14.01,2013-03-04 01:25:00,
2013-03-03 19:27:00,39.9,33.9,29.53,SSE,151,6.0,8.0,79,0.00,,---,0.00,0.00,VWS V14.01,2013-03-04 01:27:00,
2013-03-03 19:30:00,39.5,32.9,29.50,South,186,13.0,14.0,77,0.00,,---,0.00,0.00,VWS V14.01,2013-03-04 01:30:00,
2013-03-03 19:32:00,39.8,33.8,29.53,South,185,8.0,8.0,79,0.00,,---,0.00,0.00,VWS V14.01,2013-03-04 01:32:00,
2013-03-03 19:35:00,39.9,33.0,29.50,West,260,11.0,14.0,76,0.00,,---,0.00,0.00,VWS V14.01,2013-03-04 01:35:00,
2013-03-03 19:37:00,39.8,33.8,29.53,SW,229,8.0,8.0,79,0.00,,---,0.00,0.00,VWS V14.01,2013-03-04 01:37:00,
2013-03-03 19:40:00,40.3,33.0,29.50,SE,141,13.0,13.0,75,0.00,,---,0.00,0.00,VWS V14.01,2013-03-04 01:40:00,
2013-03-03 19:43:00,39.8,33.8,29.53,WNW,282,8.0,10.0,79,0.00,,---,0.00,0.00,VWS V14.01,2013-03-04 01:43:00,
2013-03-03 19:45:00,40.5,33.2,29.50,North,349,16.0,16.0,75,0.00,,---,0.00,0.00,VWS V14.01,2013-03-04 01:45:00,
2013-03-03 19:48:00,39.6,33.6,29.52,North,0,8.0,11.0,79,0.00,,---,0.00,0.00,VWS V14.01,2013-03-04 01:48:00,
2013-03-03 19:50:00,40.9,32.9,29.50,SE,127,14.0,18.0,73,0.00,,---,0.00,0.00,VWS V14.01,2013-03-04 01:50:00,
2013-03-03 19:53:00,39.3,33.3,29.52,NW,323,9.0,12.0,79,0.00,,---,0.00,0.00,VWS V14.01,2013-03-04 01:53:00,
2013-03-03 19:55:00,41.6,32.9,29.50,North,0,13.0,18.0,71,0.00,,---,0.00,0.00,VWS V14.01,2013-03-04 01:55:00,
2013-03-03 19:58:00,39.3,33.3,29.52,WSW,251,10.0,11.0,79,0.00,,---,0.00,0.00,VWS V14.01,2013-03-04 01:58:00,
2013-03-03 20:00:00,42.1,33.0,29.49,WNW,285,16.0,18.0,70,0.00,,---,0.00,0.00,VWS V14.01,2013-03-04 02:00:00,
2013-03-03 20:03:00,39.3,33.3,29.52,ESE,107,7.0,11.0,79,0.00,,---,0.00,0.00,VWS V14.01,2013-03-04 02:03:00,
2013-03-03 20:05:00,41.9,32.8,29.49,NW,316,11.0,18.0,70,0.00,,---,0.00,0.00,VWS V14.01,2013-03-04 02:05:00,
2013-03-03 20:08:00,39.1,33.2,29.52,North,0,7.0,11.0,79,0.00,,---,0.00,0.00,VWS V14.01,2013-03-04 02:08:00,
2013-03-03 20:10:00,42.1,32.7,29.49,SSW,203,16.0,19.0,69,0.00,,---,0.00,0.00,VWS V14.01,2013-03-04 02:10:00,
2013-03-03 20:13:00,38.9,33.0,29.51,South,186,10.0,10.0,79,0.00,,---,0.00,0.00,VWS V14.01,2013-03-04 02:13:00,
2013-03-03 20:15:00,42.1,32.7,29.48,SE,140,16.0,18.0,69,0.00,,---,0.00,0.00,VWS V14.01,2013-03-04 02:15:00,
2013-03-03 20:19:00,39.2,32.9,29.51,South,179,7.0,12.0,78,0.00,,---,0.00,0.00,VWS V14.01,2013-03-04 02:19:00,
2013-03-03 20:20:00,41.8,32.4,29.48,WNW,287,14.0,16.0,69,0.00,,---,0.00,0.00,VWS V14.01,2013-03-04 02:20:00,
2013-03-03 20:24:00,39.2,32.9,29.51,SSW,193,11.0,12.0,78,0.00,,---,0.00,0.00,VWS V14.01,2013-03-04 02:24:00,
2013-03-03 20:25:00,41.5,32.5,29.48,SW,216,14.0,16.0,70,0.00,,---,0.00,0.00,VWS V14.01,2013-03-04 02:25:00,
2013-03-03 20:29:00,39.5,32.9,29.50,SSE,147,11.0,14.0,77,0.00,,---,0.00,0.00,VWS V14.01,2013-03-04 02:29:00,
2013-03-03 20:30:00,41.5,32.5,29.49,North,350,12.0,17.0,70,0.00,,---,0.00,0.00,VWS V14.01,2013-03-04 02:30:00,
2013-03-03 20:34:00,39.9,33.0,29.50,West,260,11.0,14.0,76,0.00,,---,0.00,0.00,VWS V14.01,2013-03-04 02:34:00,
2013-03-03 20:35:00,41.3,32.3,29.49,West,272,14.0,15.0,70,0.00,,---,0.00,0.00,VWS V14.01,2013-03-04 02:35:00,
2013-03-03 20:39:00,40.3,33.0,29.50,SE,141,13.0,13.0,75,0.00,,---,0.00,0.00,VWS V14.01,2013-03-04 02:39:00,
2013-03-03 20:40:00,41.1,32.4,29.49,SSE,147,12.0,16.0,71,0.00,,---,0.00,0.00,VWS V14.01,2013-03-04 02:40:00,
2013-03-03 20:44:00,40.5,33.2,29.50,North,349,16.0,16.0,75,0.00,,---,0.00,0.00,VWS V14.01,2013-03-04 02:44:00,
2013-03-03 20:45:00,41.1,32.4,29.48,North,357,11.0,16.0,71,0.00,,---,0.00,0.00,VWS V14.01,2013-03-04 02:45:00,
2013-03-03 20:49:00,40.9,32.9,29.50,SE,127,14.0,18.0,73,0.00,,---,0.00,0.00,VWS V14.01,2013-03-04 02:49:00,
2013-03-03 20:50:00,41.1,32.4,29.48,North,359,12.0,16.0,71,0.00,,---,0.00,0.00,VWS V14.01,2013-03-04 02:50:00,
2013-03-03 20:54:00,41.6,32.9,29.50,North,0,13.0,18.0,71,0.00,,---,0.00,0.00,VWS V14.01,2013-03-04 02:54:00,
2013-03-03 20:55:00,41.1,32.4,29.48,SSW,205,16.0,16.0,71,0.00,,---,0.00,0.00,VWS V14.01,2013-03-04 02:55:00,
2013-03-03 20:59:00,42.1,33.0,29.49,SSE,147,15.0,16.0,70,0.00,,---,0.00,0.00,VWS V14.01,2013-03-04 02:59:00,
2013-03-03 21:00:00,41.1,32.4,29.47,SSE,164,10.0,17.0,71,0.00,,---,0.00,0.00,VWS V14.01,2013-03-04 03:00:00,
2013-03-03 21:04:00,41.9,32.8,29.49,SSW,208,17.0,17.0,70,0.00,,---,0.00,0.00,VWS V14.01,2013-03-04 03:04:00,
2013-03-03 21:05:00,41.1,32.4,29.47,NW,326,12.0,15.0,71,0.00,,---,0.00,0.00,VWS V14.01,2013-03-04 03:05:00,
2013-03-03 21:09:00,42.1,32.7,29.49,NW,322,15.0,16.0,69,0.00,,---,0.00,0.00,VWS V14.01,2013-03-04 03:09:00,
2013-03-03 21:10:00,40.8,32.1,29.47,North,0,11.0,15.0,71,0.00,,---,0.00,0.00,VWS V14.01,2013-03-04 03:10:00,
2013-03-03 21:14:00,42.1,32.7,29.48,NNW,332,14.0,16.0,69,0.00,,---,0.00,0.00,VWS V14.01,2013-03-04 03:14:00,
2013-03-03 21:15:00,40.8,32.1,29.47,SE,144,13.0,16.0,71,0.00,,---,0.00,0.00,VWS V14.01,2013-03-04 03:15:00,
2013-03-03 21:19:00,41.8,32.4,29.48,SW,217,12.0,14.0,69,0.00,,---,0.00,0.00,VWS V14.01,2013-03-04 03:19:00,
2013-03-03 21:20:00,40.9,32.2,29.47,SSE,157,15.0,17.0,71,0.00,,---,0.00,0.00,VWS V14.01,2013-03-04 03:20:00,
2013-03-03 21:24:00,41.5,32.5,29.48,SW,232,11.0,14.0,70,0.00,,---,0.00,0.00,VWS V14.01,2013-03-04 03:24:00,
2013-03-03 21:25:00,40.9,32.2,29.47,West,278,13.0,16.0,71,0.00,,---,0.00,0.00,VWS V14.01,2013-03-04 03:25:00,
2013-03-03 21:30:00,41.5,32.5,29.49,South,182,11.0,14.0,70,0.00,,---,0.00,0.00,VWS V14.01,2013-03-04 03:30:00,
2013-03-03 21:35:00,41.3,32.3,29.49,SE,141,13.0,14.0,70,0.00,,---,0.00,0.00,VWS V14.01,2013-03-04 03:35:00,
2013-03-03 21:40:00,41.1,32.4,29.49,WSW,250,10.0,13.0,71,0.00,,---,0.00,0.00,VWS V14.01,2013-03-04 03:40:00,
2013-03-03 21:45:00,41.1,32.4,29.48,North,357,14.0,16.0,71,0.00,,---,0.00,0.00,VWS V14.01,2013-03-04 03:45:00,
2013-03-03 21:50:00,41.1,32.4,29.48,WSW,254,13.0,14.0,71,0.00,,---,0.00,0.00,VWS V14.01,2013-03-04 03:50:00,
2013-03-03 21:55:00,41.1,32.4,29.48,North,359,13.0,17.0,71,0.00,,---,0.00,0.00,VWS V14.01,2013-03-04 03:55:00,
2013-03-03 22:00:00,41.1,32.4,29.47,West,264,12.0,14.0,71,0.00,,---,0.00,0.00,VWS V14.01,2013-03-04 04:00:00,
2013-03-03 22:05:00,40.9,32.2,29.47,WSW,243,14.0,14.0,71,0.00,,---,0.00,0.00,VWS V14.01,2013-03-04 04:05:00,
2013-03-03 22:10:00,39.1,31.9,29.47,NW,309,9.0,14.0,75,0.00,,---,0.00,0.00,VWS V14.01,2013-03-04 04:10:00,
2013-03-03 22:11:00,40.8,32.1,29.47,North,0,11.0,16.0,71,0.00,,---,0.00,0.00,VWS V14.01,2013-03-04 04:11:00,
2013-03-03 22:15:00,39.3,31.7,29.46,SSW,192,6.0,12.0,74,0.00,,---,0.00,0.00,VWS V14.01,2013-03-04 04:15:00,
2013-03-03 22:16:00,40.8,32.1,29.47,SSE,164,14.0,17.0,71,0.00,,---,0.00,0.00,VWS V14.01,2013-03-04 04:16:00,
2013-03-03 22:20:00,39.3,31.7,29.46,North,357,7.0,12.0,74,0.00,,---,0.00,0.00,VWS V14.01,2013-03-04 04:20:00,
2013-03-03 22:21:00,40.9,32.2,29.47,North,354,12.0,15.0,71,0.00,,---,0.00,0.00,VWS V14.01,2013-03-04 04:21:00,
2013-03-03 22:25:00,39.3,31.7,29.46,South,178,11.0,12.0,74,0.00,,---,0.00,0.00,VWS V14.01,2013-03-04 04:25:00,
2013-03-03 22:26:00,40.9,31.9,29.47,NNW,335,12.0,14.0,70,0.00,,---,0.00,0.00,VWS V14.01,2013-03-04 04:26:00,
2013-03-03 22:30:00,39.2,31.6,29.46,WSW,247,10.0,11.0,74,0.00,,---,0.00,0.00,VWS V14.01,2013-03-04 04:30:00,
2013-03-03 22:31:00,40.6,32.0,29.47,North,352,11.0,12.0,71,0.00,,---,0.00,0.00,VWS V14.01,2013-03-04 04:31:00,
2013-03-03 22:35:00,39.2,31.6,29.46,North,0,8.0,12.0,74,0.00,,---,0.00,0.00,VWS V14.01,2013-03-04 04:35:00,
2013-03-03 22:36:00,40.2,31.9,29.47,WNW,295,9.0,12.0,72,0.00,,---,0.00,0.00,VWS V14.01,2013-03-04 04:36:00,
2013-03-03 22:40:00,39.2,31.6,29.46,SE,131,12.0,13.0,74,0.00,,---,0.00,0.00,VWS V14.01,2013-03-04 04:40:00,
2013-03-03 22:41:00,39.8,31.5,29.47,SSW,210,12.0,12.0,72,0.00,,---,0.00,0.00,VWS V14.01,2013-03-04 04:41:00,
2013-03-03 22:45:00,39.2,31.6,29.45,North,352,12.0,14.0,74,0.00,,---,0.00,0.00,VWS V14.01,2013-03-04 04:45:00,
2013-03-03 22:46:00,39.2,31.3,29.46,WSW,250,11.0,13.0,73,0.00,,---,0.00,0.00,VWS V14.01,2013-03-04 04:46:00,
2013-03-03 22:50:00,38.9,31.3,29.45,SSE,152,11.0,16.0,74,0.00,,---,0.00,0.00,VWS V14.01,2013-03-04 04:50:00,
2013-03-03 22:51:00,38.9,31.3,29.46,SE,131,9.0,11.0,74,0.00,,---,0.00,0.00,VWS V14.01,2013-03-04 04:51:00,
2013-03-03 22:55:00,38.8,31.6,29.45,NNW,335,8.0,16.0,75,0.00,,---,0.00,0.00,VWS V14.01,2013-03-04 04:55:00,
2013-03-03 22:56:00,38.8,31.6,29.46,NNW,347,10.0,11.0,75,0.00,,---,0.00,0.00,VWS V14.01,2013-03-04 04:56:00,
2013-03-03 23:00:00,38.6,31.4,29.47,NNW,328,10.0,11.0,75,0.00,,---,0.00,0.00,VWS V14.01,2013-03-04 05:00:00,
2013-03-03 23:01:00,38.8,31.6,29.47,SE,143,5.0,11.0,75,0.00,,---,0.00,0.00,VWS V14.01,2013-03-04 05:01:00,
2013-03-03 23:02:00,38.8,31.6,29.47,SSE,165,7.0,11.0,75,0.00,,---,0.00,0.00,VWS V14.01,2013-03-04 05:02:00,
2013-03-03 23:05:00,38.6,31.4,29.44,NW,325,10.0,13.0,75,0.00,,---,0.00,0.00,VWS V14.01,2013-03-04 05:05:00,
2013-03-03 23:07:00,38.9,31.7,29.47,WSW,246,8.0,14.0,75,0.00,,---,0.00,0.00,VWS V14.01,2013-03-04 05:07:00,
2013-03-03 23:10:00,38.3,31.1,29.44,South,184,8.0,11.0,75,0.00,,---,0.00,0.00,VWS V14.01,2013-03-04 05:10:00,
2013-03-03 23:12:00,39.3,31.7,29.47,SE,133,11.0,12.0,74,0.00,,---,0.00,0.00,VWS V14.01,2013-03-04 05:12:00,
2013-03-03 23:15:00,38.3,31.4,29.44,SSE,168,6.0,11.0,76,0.00,,---,0.00,0.00,VWS V14.01,2013-03-04 05:15:00,
2013-03-03 23:17:00,39.3,31.7,29.46,North,0,8.0,12.0,74,0.00,,---,0.00,0.00,VWS V14.01,2013-03-04 05:17:00,
2013-03-03 23:20:00,38.2,31.3,29.44,SSE,157,4.0,12.0,76,0.00,,---,0.00,0.00,VWS V14.01,2013-03-04 05:20:00,
2013-03-03 23:22:00,39.3,31.7,29.46,SE,143,10.0,12.0,74,0.00,,---,0.00,0.00,VWS V14.01,2013-03-04 05:22:00,
2013-03-03 23:25:00,38.0,31.1,29.44,SSE,154,4.0,7.0,76,0.00,,---,0.00,0.00,VWS V14.01,2013-03-04 05:25:00,
2013-03-03 23:27:00,39.2,31.6,29.46,South,189,11.0,11.0,74,0.00,,---,0.00,0.00,VWS V14.01,2013-03-04 05:27:00,
2013-03-03 23:30:00,37.9,31.0,29.44,North,356,4.0,6.0,76,0.00,,---,0.00,0.00,VWS V14.01,2013-03-04 05:30:00,
2013-03-03 23:33:00,39.2,31.6,29.46,SW,232,11.0,12.0,74,0.00,,---,0.00,0.00,VWS V14.01,2013-03-04 05:33:00,
2013-03-03 23:35:00,37.9,31.0,29.44,NW,315,3.0,7.0,76,0.00,,---,0.00,0.00,VWS V14.01,2013-03-04 05:35:00,
2013-03-03 23:38:00,39.2,31.6,29.46,WNW,299,11.0,12.0,74,0.00,,---,0.00,0.00,VWS V14.01,2013-03-04 05:38:00,
2013-03-03 23:40:00,37.9,31.0,29.44,SSE,168,5.0,6.0,76,0.00,,---,0.00,0.00,VWS V14.01,2013-03-04 05:40:00,
2013-03-03 23:43:00,39.2,31.6,29.46,South,191,13.0,13.0,74,0.00,,---,0.00,0.00,VWS V14.01,2013-03-04 05:43:00,
2013-03-03 23:45:00,37.8,30.9,29.44,SSE,161,3.0,7.0,76,0.00,,---,0.00,0.00,VWS V14.01,2013-03-04 05:45:00,
2013-03-03 23:48:00,39.1,31.5,29.45,West,264,13.0,14.0,74,0.00,,---,0.00,0.00,VWS V14.01,2013-03-04 05:48:00,
2013-03-03 23:50:00,37.6,31.1,29.44,SW,224,2.0,5.0,77,0.00,,---,0.00,0.00,VWS V14.01,2013-03-04 05:50:00,
2013-03-03 23:53:00,38.8,31.6,29.45,North,0,10.0,16.0,75,0.00,,---,0.00,0.00,VWS V14.01,2013-03-04 05:53:00,
2013-03-03 23:55:00,37.3,30.8,29.44,North,350,4.0,6.0,77,0.00,,---,0.00,0.00,VWS V14.01,2013-03-04 05:55:00,
2013-03-03 23:58:00,38.6,31.4,29.44,NW,312,8.0,14.0,75,0.00,,---,0.00,0.00,VWS V14.01,2013-03-04 05:58:00,